CUBEBUG-2 (LO-74)

Last updated on Wed Aug 19 2026 00:03:14 GMT+0000 (Coordinated Universal Time)

1 39440U 13066AA 26230.41864273 .00002559 00000+0 23749-3 0 9992 2 39440 97.8945 179.6912 0056937 179.2852 180.8459 14.94128609686282
UTC large
Height (km)
Speed (km/s)
/
Latitude / Longitude
Inclination (degrees)
Orbital Period (minutes)
Azimuth
Elevation
Range (km)
Doppler Factor

Next 0 passes for location: London (51.5072 / 0.1276)

No passes found over London.
CUBEBUG-2 (LO-74)